Radiation Dose at Monitoring Post of Fukushima Daini Nuclear Power Station
Date,Time,MP-1(microSv/h),MP-2(microSv/h),MP-3(microSv/h),MP-4(microSv/h),MP-5(microSv/h),MP-6(microSv/h),MP-7(microSv/h),Wind Direction,Wind Velocity(m/s),Rain
2015/07/11,00:00,0.511,0.303,0.519,0.475,0.461,0.235,0.204,west,2.0,No
2015/07/11,00:10,0.506,0.303,0.521,0.471,0.464,0.234,0.203,west,1.8,No
2015/07/11,00:20,0.511,0.303,0.518,0.474,0.462,0.236,0.203,west,2.2,No
2015/07/11,00:30,0.508,0.305,0.518,0.470,0.462,0.234,0.203,west,1.6,No
2015/07/11,00:40,0.507,0.302,0.521,0.475,0.464,0.235,0.205,west,1.5,No
2015/07/11,00:50,0.510,0.305,0.515,0.469,0.461,0.235,0.204,west,1.8,No
2015/07/11,01:00,0.503,0.302,0.523,0.476,0.465,0.237,0.204,west-northwest,1.4,No
2015/07/11,01:10,0.512,0.304,0.515,0.471,0.461,0.236,0.204,west-northwest,1.2,No
2015/07/11,01:20,0.506,0.303,0.521,0.473,0.467,0.236,0.204,west-northwest,1.4,No
2015/07/11,01:30,0.512,0.305,0.520,0.473,0.461,0.235,0.205,northwest,1.3,No
2015/07/11,01:40,0.508,0.303,0.517,0.473,0.466,0.236,0.203,northwest,0.7,No
2015/07/11,01:50,0.510,0.304,0.518,0.471,0.459,0.235,0.205,-,CALM,No
2015/07/11,02:00,0.508,0.304,0.519,0.472,0.465,0.236,0.205,west,1.1,No
2015/07/11,02:10,0.509,0.301,0.521,0.475,0.459,0.234,0.205,west-northwest,0.8,No
2015/07/11,02:20,0.510,0.304,0.518,0.471,0.466,0.236,0.203,west,0.9,No
2015/07/11,02:30,0.505,0.304,0.522,0.476,0.459,0.234,0.203,west-northwest,1.2,No
2015/07/11,02:40,0.511,0.304,0.514,0.471,0.464,0.235,0.204,west-southwest,3.1,No
2015/07/11,02:50,0.504,0.303,0.520,0.474,0.461,0.235,0.204,west,3.7,No
2015/07/11,03:00,0.510,0.303,0.516,0.470,0.464,0.236,0.204,west,4.5,No
2015/07/11,03:10,0.505,0.304,0.519,0.474,0.460,0.234,0.204,west,4.5,No
2015/07/11,03:20,0.511,0.302,0.516,0.471,0.464,0.235,0.204,west,3.3,No
2015/07/11,03:30,0.505,0.305,0.520,0.475,0.461,0.234,0.203,west,2.5,No
2015/07/11,03:40,0.509,0.303,0.518,0.471,0.462,0.235,0.205,north-northwest,1.4,No
2015/07/11,03:50,0.506,0.305,0.520,0.475,0.462,0.235,0.204,east-northeast,1.0,No
2015/07/11,04:00,0.508,0.302,0.518,0.471,0.463,0.235,0.204,-,CALM,No
2015/07/11,04:10,0.510,0.305,0.518,0.473,0.461,0.235,0.203,-,CALM,No
2015/07/11,04:20,0.507,0.301,0.520,0.470,0.461,0.236,0.204,north-northwest,0.5,No
2015/07/11,04:30,0.507,0.304,0.517,0.474,0.464,0.235,0.204,northwest,0.8,No
2015/07/11,04:40,0.506,0.302,0.520,0.471,0.460,0.236,0.204,northwest,1.4,No
2015/07/11,04:50,0.511,0.304,0.516,0.474,0.466,0.235,0.204,north-northwest,0.9,No
2015/07/11,05:00,0.506,0.303,0.521,0.471,0.460,0.235,0.205,west-northwest,1.3,No
2015/07/11,05:10,0.510,0.304,0.515,0.474,0.465,0.235,0.205,west,1.0,No
2015/07/11,05:20,0.507,0.303,0.521,0.473,0.457,0.235,0.203,-,CALM,No
2015/07/11,05:30,0.510,0.304,0.515,0.471,0.464,0.234,0.203,-,CALM,No
2015/07/11,05:40,0.505,0.302,0.520,0.473,0.460,0.235,0.204,-,CALM,No
2015/07/11,05:50,0.510,0.302,0.518,0.472,0.458,0.236,0.202,south,0.5,No
2015/07/11,06:00,0.506,0.303,0.518,0.473,0.462,0.235,0.204,south-southeast,0.5,No
2015/07/11,06:10,0.508,0.302,0.517,0.470,0.459,0.236,0.204,south,1.1,No
2015/07/11,06:20,0.509,0.301,0.516,0.475,0.455,0.234,0.202,south-southeast,1.1,No
2015/07/11,06:30,0.505,0.305,0.519,0.469,0.460,0.234,0.201,south-southwest,1.8,No
2015/07/11,06:40,0.510,0.303,0.515,0.472,0.463,0.236,0.203,south-southeast,1.3,No
2015/07/11,06:50,0.505,0.301,0.522,0.473,0.459,0.234,0.204,south-southeast,2.2,No
2015/07/11,07:00,0.508,0.300,0.518,0.467,0.462,0.236,0.204,south-southeast,1.7,No
2015/07/11,07:10,0.508,0.299,0.511,0.472,0.467,0.234,0.202,south,1.7,No
2015/07/11,07:20,0.503,0.303,0.511,0.475,0.461,0.236,0.203,south,1.6,No
2015/07/11,07:30,0.511,0.305,0.518,0.469,0.462,0.235,0.202,south-southwest,2.3,No
2015/07/11,07:40,0.508,0.304,0.518,0.466,0.467,0.235,0.204,southwest,2.4,No
2015/07/11,07:50,0.501,0.303,0.515,0.466,0.462,0.235,0.203,south-southwest,2.1,No
2015/07/11,08:00,0.505,0.302,0.516,0.465,0.459,0.234,0.203,south,1.6,No
2015/07/11,08:10,0.508,0.303,0.513,0.465,0.457,0.233,0.203,south,1.6,No
2015/07/11,08:20,0.506,0.301,0.513,0.465,0.457,0.235,0.204,south-southeast,1.5,No
2015/07/11,08:30,0.503,0.301,0.513,0.469,0.466,0.236,0.203,south,1.6,No
2015/07/11,08:40,0.502,0.303,0.513,0.469,0.465,0.236,0.204,south-southeast,1.9,No
2015/07/11,08:50,0.511,0.301,0.522,0.470,0.465,0.235,0.204,south-southeast,1.9,No
2015/07/11,09:00,0.510,0.302,0.521,0.471,0.462,0.235,0.203,south,2.4,No
2015/07/11,09:10,0.508,0.303,0.517,0.472,0.461,0.236,0.204,south-southeast,2.4,No
2015/07/11,09:20,0.506,0.302,0.515,0.471,0.462,0.236,0.204,southeast,2.3,No
2015/07/11,09:30,0.504,0.303,0.515,0.473,0.459,0.236,0.203,south-southeast,2.2,No
2015/07/11,09:40,0.504,0.304,0.517,0.472,0.460,0.235,0.205,southeast,2.3,No
2015/07/11,09:50,0.505,0.303,0.523,0.472,0.461,0.234,0.204,southeast,1.5,No
2015/07/11,10:00,0.504,0.304,0.521,0.474,0.460,0.235,0.204,south-southeast,1.9,No
2015/07/11,10:10,0.505,0.303,0.517,0.473,0.460,0.237,0.204,south,2.1,No
2015/07/11,10:20,0.507,0.303,0.516,0.475,0.460,0.236,0.205,south,2.5,No
2015/07/11,10:30,0.502,0.302,0.515,0.473,0.460,0.236,0.203,south,3.3,No
2015/07/11,10:40,0.506,0.304,0.516,0.475,0.462,0.237,0.204,south,3.2,No
2015/07/11,10:50,0.505,0.304,0.516,0.474,0.462,0.236,0.204,south,2.8,No
2015/07/11,11:00,0.507,0.304,0.518,0.475,0.464,0.236,0.204,south,3.0,No
2015/07/11,11:10,0.509,0.304,0.521,0.475,0.462,0.237,0.203,south,3.3,No
2015/07/11,11:20,0.507,0.305,0.519,0.475,0.462,0.238,0.204,south,3.6,No
2015/07/11,11:30,0.508,0.304,0.517,0.474,0.466,0.236,0.204,south-southeast,3.1,No
2015/07/11,11:40,0.508,0.305,0.519,0.473,0.463,0.236,0.204,south-southeast,3.3,No
2015/07/11,11:50,0.508,0.304,0.520,0.475,0.463,0.237,0.204,south-southeast,3.1,No
2015/07/11,12:00,0.508,0.304,0.522,0.473,0.464,0.236,0.205,south-southeast,3.4,No
2015/07/11,12:10,0.510,0.305,0.519,0.475,0.461,0.236,0.206,south-southeast,2.8,No
2015/07/11,12:20,0.509,0.303,0.520,0.475,0.463,0.237,0.204,south-southeast,3.3,No
2015/07/11,12:30,0.507,0.304,0.522,0.475,0.462,0.236,0.206,south,2.9,No
2015/07/11,12:40,0.506,0.304,0.522,0.474,0.462,0.236,0.205,south-southeast,3.3,No
2015/07/11,12:50,0.507,0.305,0.521,0.473,0.464,0.236,0.205,south,3.8,No
2015/07/11,13:00,0.507,0.304,0.521,0.473,0.464,0.236,0.205,south,4.1,No
2015/07/11,13:10,0.504,0.306,0.519,0.475,0.465,0.237,0.206,south-southeast,3.8,No
2015/07/11,13:20,0.506,0.305,0.521,0.474,0.465,0.236,0.205,south-southeast,4.9,No
2015/07/11,13:30,0.505,0.305,0.521,0.475,0.464,0.235,0.205,south,4.1,No
2015/07/11,13:40,0.507,0.304,0.520,0.475,0.464,0.237,0.206,south,4.4,No
2015/07/11,13:50,0.506,0.306,0.520,0.477,0.463,0.237,0.206,south,3.6,No
2015/07/11,14:00,0.507,0.305,0.524,0.475,0.465,0.235,0.205,south-southeast,3.5,No
2015/07/11,14:10,0.506,0.304,0.521,0.475,0.465,0.236,0.205,south-southeast,3.2,No
2015/07/11,14:20,0.507,0.305,0.522,0.474,0.464,0.236,0.204,south,4.2,No
2015/07/11,14:30,0.510,0.305,0.520,0.474,0.464,0.235,0.204,south,3.7,No
2015/07/11,14:40,0.508,0.305,0.521,0.474,0.463,0.236,0.204,south,3.3,No
2015/07/11,14:50,0.509,0.304,0.522,0.474,0.466,0.234,0.204,south,4.4,No
2015/07/11,15:00,0.508,0.305,0.522,0.474,0.464,0.235,0.203,south,5.6,No
2015/07/11,15:10,0.507,0.304,0.522,0.472,0.463,0.235,0.203,south,5.2,No
2015/07/11,15:20,0.508,0.304,0.520,0.469,0.465,0.236,0.204,south,6.4,No
2015/07/11,15:30,0.513,0.304,0.519,0.471,0.463,0.236,0.204,south,6.8,No
2015/07/11,15:40,0.514,0.304,0.519,0.468,0.463,0.236,0.203,south,7.1,No
2015/07/11,15:50,0.510,0.304,0.518,0.475,0.464,0.235,0.202,south,6.7,No
2015/07/11,16:00,0.507,0.303,0.518,0.477,0.465,0.235,0.202,south,7.6,No
2015/07/11,16:10,0.506,0.304,0.518,0.475,0.464,0.234,0.204,south,8.1,No
2015/07/11,16:20,0.510,0.303,0.518,0.473,0.464,0.235,0.205,south,7.4,No
2015/07/11,16:30,0.511,0.306,0.517,0.473,0.463,0.235,0.204,south,7.5,No
2015/07/11,16:40,0.510,0.309,0.515,0.473,0.464,0.236,0.203,south,7.5,No
2015/07/11,16:50,0.509,0.308,0.516,0.479,0.464,0.236,0.205,south,7.8,No
2015/07/11,17:00,0.507,0.306,0.516,0.477,0.463,0.235,0.205,south,8.2,No
2015/07/11,17:10,0.503,0.303,0.524,0.475,0.461,0.236,0.204,south,7.1,No
2015/07/11,17:20,0.510,0.306,0.521,0.472,0.461,0.236,0.203,south,6.8,No
2015/07/11,17:30,0.514,0.307,0.520,0.473,0.464,0.237,0.205,south,7.8,No
2015/07/11,17:40,0.512,0.306,0.518,0.478,0.462,0.236,0.205,south,7.8,No
2015/07/11,17:50,0.507,0.304,0.517,0.477,0.461,0.236,0.203,south,7.5,No
2015/07/11,18:00,0.506,0.303,0.517,0.475,0.461,0.234,0.204,south,6.9,No
2015/07/11,18:10,0.512,0.306,0.525,0.472,0.461,0.236,0.206,south,7.0,No
2015/07/11,18:20,0.512,0.308,0.525,0.476,0.459,0.237,0.204,south,6.9,No
2015/07/11,18:30,0.510,0.306,0.523,0.479,0.460,0.236,0.203,south-southwest,5.9,No
2015/07/11,18:40,0.506,0.304,0.519,0.477,0.458,0.235,0.205,south-southwest,4.7,No
2015/07/11,18:50,0.510,0.308,0.523,0.472,0.463,0.237,0.205,south-southwest,5.3,No
2015/07/11,19:00,0.513,0.307,0.526,0.477,0.467,0.236,0.204,south-southwest,5.8,No
2015/07/11,19:10,0.509,0.304,0.521,0.482,0.466,0.235,0.205,south-southwest,5.5,No
2015/07/11,19:20,0.509,0.307,0.520,0.476,0.461,0.236,0.205,south-southwest,5.3,No
2015/07/11,19:30,0.516,0.306,0.530,0.474,0.466,0.235,0.205,south-southwest,5.2,No
2015/07/11,19:40,0.511,0.304,0.525,0.482,0.468,0.236,0.206,south-southwest,5.6,No
2015/07/11,19:50,0.509,0.309,0.520,0.477,0.463,0.237,0.205,south-southwest,4.4,No
2015/07/11,20:00,0.515,0.307,0.528,0.475,0.465,0.236,0.205,south-southwest,4.5,No
2015/07/11,20:10,0.511,0.307,0.526,0.482,0.472,0.237,0.206,south-southwest,4.7,No
2015/07/11,20:20,0.510,0.307,0.521,0.479,0.467,0.237,0.205,south-southwest,4.2,No
2015/07/11,20:30,0.513,0.306,0.525,0.474,0.463,0.237,0.206,southwest,4.3,No
2015/07/11,20:40,0.509,0.308,0.528,0.481,0.471,0.237,0.207,southwest,3.4,No
2015/07/11,20:50,0.512,0.306,0.521,0.479,0.464,0.237,0.205,west-southwest,3.2,No
2015/07/11,21:00,0.516,0.306,0.522,0.474,0.463,0.237,0.206,west-southwest,2.6,No
2015/07/11,21:10,0.508,0.308,0.526,0.479,0.469,0.237,0.206,west-northwest,2.1,No
2015/07/11,21:20,0.515,0.306,0.521,0.478,0.463,0.239,0.207,west-northwest,1.5,No
2015/07/11,21:30,0.514,0.309,0.527,0.475,0.467,0.236,0.206,northwest,1.3,No
2015/07/11,21:40,0.507,0.306,0.525,0.482,0.469,0.237,0.207,northwest,1.1,No
2015/07/11,21:50,0.516,0.307,0.521,0.474,0.461,0.237,0.206,northwest,1.3,No
2015/07/11,22:00,0.512,0.307,0.528,0.476,0.467,0.236,0.206,west-northwest,1.2,No
2015/07/11,22:10,0.508,0.306,0.524,0.481,0.466,0.238,0.206,northwest,1.0,No
2015/07/11,22:20,0.514,0.307,0.520,0.473,0.461,0.237,0.205,west-northwest,0.6,No
2015/07/11,22:30,0.508,0.306,0.527,0.479,0.468,0.237,0.206,west,0.7,No
2015/07/11,22:40,0.513,0.307,0.519,0.478,0.464,0.236,0.204,-,CALM,No
2015/07/11,22:50,0.511,0.306,0.525,0.474,0.462,0.238,0.207,west-northwest,1.2,No
2015/07/11,23:00,0.508,0.306,0.526,0.480,0.465,0.236,0.205,west,3.5,No
2015/07/11,23:10,0.514,0.307,0.520,0.475,0.461,0.237,0.205,west,4.2,No
2015/07/11,23:20,0.508,0.305,0.526,0.479,0.464,0.238,0.206,west,4.5,No
2015/07/11,23:30,0.513,0.306,0.523,0.478,0.468,0.236,0.204,west,4.4,No
2015/07/11,23:40,0.511,0.305,0.521,0.475,0.460,0.237,0.205,west,6.1,No
2015/07/11,23:50,0.508,0.307,0.525,0.480,0.465,0.237,0.205,west,8.0,No
